[[{"header":{"parameterUnit":"m.s-1","parameterCategory":1,"la1":30.2991,"la2":30.254,"lo1":-89.0895,"lo2":-89.0444,"dy":0.0017,"dx":0.0017,"nx":28,"ny":28,"refTime":"2025-01-22T09:00:00:Z","depth":0,"parameterNumber":2,"parameterNumberName":"U-component_of_WINDS"},"data":[0,0,0,0,0,0,0,0,0,0,0,0,0,0,0,0,0,0,0,0,0,0,0,0,0,0,0,0,0,0,0,0,0,0,0,0,0,0,0,0,0,0,0,0,0,0,0,0,0,0,0,0,0,0,0,0,0,0,-3.0157,-3.0157,0,-3.0193,-3.0193,-3.0193,-3.0096,-3.0093,-3.009,-3.0087,-3.0124,-3.0128,-3.0132,0,0,0,0,0,0,0,0,0,0,0,0,0,-3.0005,-3.0008,-3.0157,-3.0157,-3.0158,-3.0193,-3.0193,-3.0193,-3.0096,-3.0092,-3.0089,-3.0085,-3.0123,-3.0127,-3.0132,0,0,0,0,0,0,0,0,0,0,0,0,0,-3.0059,-3.0009,-3.0157,-3.0113,-3.011,-3.0192,-3.0193,-3.0194,-3.0097,-3.0092,-3.0088,-3.0084,-3.0121,-3.0127,-3.0133,-3.0259,0,0,-3.015,-3.0153,0,0,0,0,0,0,0,0,-3.0056,-3.0065,-3.0119,-3.0117,-3.0113,-3.0135,-3.0153,-3.0216,-3.0098,-3.0102,-3.0087,-3.0081,-3.0131,-3.0136,-3.0153,-3.0261,-3.0262,-3.0151,-3.0154,-3.0157,-3.0158,0,0,0,0,0,0,0,-3.0052,-3.0062,-3.0171,-3.012,-3.0116,-3.0092,-3.0095,-3.0164,-3.0142,-3.0101,-3.0094,-3.01,-3.0129,-3.0147,-3.0153,-3.0263,-3.015,-3.0156,-3.0159,-3.0161,-3.0476,-3.0481,0,0,0,0,0,0,-3.0054,-3.006,-3.017,-3.0172,-3.0073,-3.0099,-3.0102,-3.0133,-3.0141,-3.0138,-3.0104,-3.0095,-3.014,-3.0146,-3.0154,-3.0302,-3.0156,-3.0162,-3.0165,-3.0471,-3.0477,-3.0482,0,0,0,0,0,0,-3.0051,-3.0065,-3.0168,-3.0114,-3.0125,-3.0106,-3.0142,-3.0136,-3.0154,-3.0143,-3.0138,-3.0127,-3.0137,-3.0146,-3.0233,-3.0302,-3.0164,-3.017,-3.0465,-3.0473,-3.048,-3.0601,0,0,0,0,0,0,-3.0047,-3.0064,-3.0112,-3.0116,-3.0129,-3.0248,-3.0146,-3.014,-3.0164,-3.0153,-3.0163,-3.016,-3.0134,-3.0225,-3.0239,-3.0308,-3.0174,-3.0459,-3.0469,-3.0477,-3.0591,-3.0611,-3.0629,0,0,0,0,0,-3.0042,-3.0145,-3.0115,-3.0129,-3.0188,-3.0252,-3.0259,-3.0226,-3.017,-3.0218,-3.021,-3.016,-3.0292,-3.0235,-3.025,-3.0321,-3.0454,-3.0466,-3.0477,-3.0582,-3.0607,-3.0629,0,0,0,0,0,0,-3.0151,-3.0145,-3.0112,-3.0219,-3.0237,-3.0235,-3.0295,-3.0254,-3.0289,-3.0277,-3.0235,-3.0238,-3.0333,-3.0336,-3.0272,-3.0444,-3.0364,-3.0378,-3.0439,-3.0463,-3.0482,-3.048,-3.0179,0,0,0,0,0,-3.0187,-3.0239,-3.0231,-3.0327,-3.0337,-3.0315,-3.0341,-3.0314,-3.0331,-3.0338,-3.0337,-3.0355,-3.0401,-3.0432,-3.0473,-3.059,-3.0591,-3.0646,-3.0665,-3.0681,-3.0695,-3.0756,-3.0781,-3.0519,-3.0518,-3.0518,0,0,-3.0263,-3.0266,-3.0302,-3.0349,-3.0359,-3.0414,-3.0322,-3.0384,-3.0425,-3.0348,-3.043,-3.043,-3.0448,-3.0551,-3.0596,-3.0556,-3.0767,-3.0695,-3.0708,-3.0713,-3.077,-3.0795,-3.0817,-3.0526,-3.0525,-3.0524,0,0,-3.0429,-3.0437,-3.0517,-3.0529,-3.0546,-3.0531,-3.055,-3.0555,-3.0552,-3.0634,-3.0577,-3.0624,-3.0704,-3.0719,-3.0737,-3.0908,-3.0863,-3.0922,-3.1024,-3.1085,-3.1105,-3.1123,-3.1185,-3.1207,-3.0936,-3.0936,-3.0936,0,-3.0521,-3.0602,-3.0564,-3.063,-3.0652,-3.0584,-3.0665,-3.0679,-3.0709,-3.0726,-3.068,-3.0778,-3.0785,-3.0891,-3.0932,-3.0949,-3.097,-3.0922,-3.1105,-3.1123,-3.1139,-3.1197,-3.1221,-3.0943,-3.0942,-3.0941,-3.0941,0,-3.0714,-3.0771,-3.0834,-3.0864,-3.0893,-3.0967,-3.094,-3.0974,-3.0944,-3.0933,-3.1018,-3.1023,-3.1065,-3.1087,-3.1059,-3.1189,-3.1163,-3.1112,-3.1031,-3.1172,-3.1226,-3.1248,-3.0953,-3.0951,-3.0949,-3.0947,0,0,-3.0951,-3.0959,-3.0982,-3.0995,-3.1009,-3.1052,-3.1122,-3.1162,-3.1192,-3.1214,-3.1272,-3.1341,-3.1293,-3.1314,-3.1286,-3.1339,-3.1475,-3.1281,-3.1281,-3.1318,-3.1618,-3.1657,-3.1683,-3.1444,-3.1449,-3.1452,-3.1617,0,-3.1115,-3.1235,-3.1203,-3.1323,-3.1375,-3.1311,-3.1372,-3.1387,-3.1378,-3.1421,-3.1411,-3.146,-3.1394,-3.1406,-3.1456,-3.1448,-3.1535,-3.1435,-3.1498,-3.1501,-3.1496,-3.1711,-3.1752,-3.1908,-3.1637,-3.1641,-3.1643,0,-3.1323,-3.1354,-3.1479,-3.1483,-3.1504,-3.1559,-3.1593,-3.1635,-3.165,-3.164,-3.1663,-3.1624,-3.1693,-3.1611,-3.1705,-3.1638,-3.1662,-3.1662,-3.1667,-3.1672,-3.1581,-3.1722,-3.1956,-3.198,-3.1676,-3.1674,-3.1671,0,-3.1484,-3.1556,-3.164,-3.1653,-3.166,-3.1701,-3.1706,-3.1716,-3.1742,-3.1771,-3.1788,-3.1825,-3.1846,-3.1875,-3.1848,-3.1791,-3.1946,-3.1862,-3.194,-3.1941,-3.1976,-3.1975,-3.2218,-3.1991,-3.1991,-3.199,-3.199,0,-3.1671,-3.175,-3.1712,-3.1764,-3.1851,-3.1812,-3.1899,-3.1897,-3.1907,-3.1957,-3.1903,-3.1952,-3.1912,-3.1957,-3.1936,-3.2017,-3.2026,-3.202,-3.2014,-3.2025,-3.2026,-3.2041,-3.2029,-3.1996,-3.1995,-3.1994,-3.1993,0,-3.1865,-3.1843,-3.193,-3.193,-3.1932,-3.1996,-3.1995,-3.2043,-3.203,-3.2094,-3.2107,-3.2087,-3.2137,-3.2112,-3.2164,-3.2149,-3.2254,-3.2233,-3.225,-3.2244,-3.2324,-3.2317,-3.2585,-3.2618,-3.237,-3.2372,-3.2374,0,-3.1986,-3.2046,-3.2051,-3.2081,-3.209,-3.2138,-3.2164,-3.2128,-3.2158,-3.2179,-3.2225,-3.227,-3.2304,-3.2386,-3.2376,-3.2416,-3.2395,-3.2486,-3.2401,-3.241,-3.2397,-3.2394,-3.2399,-3.2504,-3.2507,-3.2509,-3.2511,0,-3.2204,-3.219,-3.2229,-3.2265,-3.2298,-3.2325,-3.2347,-3.2374,-3.2338,-3.2374,-3.2424,-3.2451,-3.2503,-3.2549,-3.2582,-3.2587,-3.2544,-3.2538,-3.2558,-3.2571,-3.2578,-3.2575,-3.2297,-3.2532,-3.253,-3.2529,-3.2527,-3.2527,-3.2365,-3.2415,-3.2427,-3.2472,-3.2485,-3.2507,-3.2552,-3.2544,-3.2586,-3.2625,-3.2602,-3.266,-3.2673,-3.2714,-3.2725,-3.277,-3.2733,-3.2763,-3.277,-3.2778,-3.2789,-3.257,-3.2776,-3.2775,-3.2775,-3.2774,-3.2774,0,-3.258,-3.2584,-3.2627,-3.2659,-3.2695,-3.2651,-3.2672,-3.2706,-3.2758,-3.2774,-3.2808,-3.2866,-3.2909,-3.2903,-3.2942,-3.298,-3.2961,-3.2991,-3.2988,-3.299,-3.2819,-3.2798,-3.3006,-3.3006,-3.3006,-3.3006,-3.3006,-3.3006,-3.2696,-3.2778,-3.2765,-3.2852,-3.2856,-3.2913,-3.2929,-3.2949,-3.2961,-3.3028,-3.3064,-3.3059,-3.3066,-3.3105,-3.3143,-3.314,-3.3157,-3.3195,-3.3185,-3.3025,-3.3002,-3.298,-3.296,-3.3199,-3.3199,-3.3352,-3.3353,-3.3354]},{"header":{"parameterUnit":"m.s-1","parameterCategory":1,"la1":30.2991,"la2":30.254,"lo1":-89.0895,"lo2":-89.0444,"dy":0.0017,"dx":0.0017,"nx":28,"ny":28,"refTime":"2025-01-22T09:00:00:Z","depth":0,"parameterNumber":3,"parameterNumberName":"V-component_of_WINDS"},"data":[0,0,0,0,0,0,0,0,0,0,0,0,0,0,0,0,0,0,0,0,0,0,0,0,0,0,0,0,0,0,0,0,0,0,0,0,0,0,0,0,0,0,0,0,0,0,0,0,0,0,0,0,0,0,0,0,0,0,-4.411,-4.4111,0,-4.4167,-4.4167,-4.4168,-4.4102,-4.41,-4.4097,-4.4095,-4.4151,-4.4154,-4.4158,0,0,0,0,0,0,0,0,0,0,0,0,0,-4.3942,-4.3946,-4.411,-4.4111,-4.4112,-4.4167,-4.4167,-4.4168,-4.4103,-4.41,-4.4097,-4.4094,-4.4149,-4.4154,-4.4158,0,0,0,0,0,0,0,0,0,0,0,0,0,-4.4009,-4.3947,-4.411,-4.4086,-4.4084,-4.4166,-4.4167,-4.4168,-4.4103,-4.41,-4.4096,-4.4093,-4.4148,-4.4153,-4.4159,-4.4267,0,0,-4.4176,-4.4179,0,0,0,0,0,0,0,0,-4.4005,-4.4015,-4.4089,-4.4087,-4.4086,-4.4124,-4.4128,-4.4202,-4.4104,-4.4096,-4.4095,-4.4091,-4.4144,-4.415,-4.4169,-4.427,-4.4272,-4.4177,-4.418,-4.4183,-4.4184,0,0,0,0,0,0,0,-4.4,-4.4012,-4.4132,-4.409,-4.4088,-4.4071,-4.4076,-4.4142,-4.414,-4.4096,-4.4092,-4.4099,-4.4143,-4.4164,-4.417,-4.4273,-4.4177,-4.4182,-4.4185,-4.4187,-4.4465,-4.4469,0,0,0,0,0,0,-4.3999,-4.4009,-4.4131,-4.4134,-4.4036,-4.4077,-4.4083,-4.4115,-4.4139,-4.4139,-4.4103,-4.4096,-4.4156,-4.4163,-4.4171,-4.4299,-4.4183,-4.4188,-4.4191,-4.4461,-4.4466,-4.447,0,0,0,0,0,0,-4.3996,-4.4011,-4.4128,-4.407,-4.4084,-4.4084,-4.4121,-4.4118,-4.4139,-4.4144,-4.4143,-4.4124,-4.4153,-4.4163,-4.4244,-4.43,-4.419,-4.4195,-4.4457,-4.4463,-4.4468,-4.4557,0,0,0,0,0,0,-4.3991,-4.401,-4.4052,-4.4072,-4.4087,-4.4201,-4.4124,-4.4122,-4.4149,-4.4141,-4.4164,-4.4164,-4.4151,-4.4236,-4.425,-4.4306,-4.42,-4.4451,-4.4459,-4.4466,-4.4549,-4.4565,-4.4579,0,0,0,0,0,-4.3985,-4.4074,-4.4054,-4.4069,-4.414,-4.4205,-4.4214,-4.4197,-4.4154,-4.4195,-4.4199,-4.4163,-4.4292,-4.4245,-4.426,-4.4319,-4.4448,-4.4457,-4.4466,-4.4542,-4.4562,-4.4579,0,0,0,0,0,0,-4.406,-4.4076,-4.4055,-4.4153,-4.4178,-4.4194,-4.4246,-4.4219,-4.4257,-4.4248,-4.4225,-4.4231,-4.4317,-4.4325,-4.4273,-4.4424,-4.4363,-4.4375,-4.4416,-4.4435,-4.4449,-4.4445,-4.4205,0,0,0,0,0,-4.4088,-4.4141,-4.4151,-4.4237,-4.4251,-4.4246,-4.4274,-4.4259,-4.4284,-4.4294,-4.4303,-4.4328,-4.4374,-4.4405,-4.4447,-4.455,-4.4553,-4.4598,-4.4613,-4.4625,-4.4636,-4.469,-4.471,-4.45,-4.45,-4.45,0,0,-4.4147,-4.4162,-4.4196,-4.4252,-4.427,-4.4324,-4.4256,-4.4315,-4.4355,-4.4303,-4.438,-4.4387,-4.4413,-4.4505,-4.4546,-4.4516,-4.4695,-4.4637,-4.4646,-4.4651,-4.4702,-4.4721,-4.4739,-4.4506,-4.4505,-4.4504,0,0,-4.428,-4.4298,-4.437,-4.439,-4.4418,-4.4414,-4.4432,-4.4451,-4.4455,-4.4532,-4.4494,-4.4539,-4.4619,-4.4639,-4.466,-4.48,-4.4769,-4.4814,-4.4893,-4.4947,-4.4963,-4.4978,-4.5027,-4.5045,-4.4825,-4.4826,-4.4826,0,-4.4349,-4.4429,-4.4411,-4.4473,-4.4499,-4.4455,-4.4528,-4.4547,-4.4588,-4.4606,-4.4571,-4.4669,-4.4684,-4.478,-4.4814,-4.4832,-4.4851,-4.4812,-4.4962,-4.4977,-4.499,-4.5037,-4.5056,-4.4831,-4.483,-4.483,-4.4829,0,-4.4512,-4.4568,-4.4623,-4.4664,-4.4696,-4.4763,-4.4754,-4.4788,-4.477,-4.477,-4.4848,-4.4864,-4.4909,-4.493,-4.4913,-4.5024,-4.5003,-4.4966,-4.4903,-4.5016,-4.506,-4.5078,-4.4839,-4.4837,-4.4835,-4.4834,0,0,-4.4695,-4.4725,-4.4745,-4.4763,-4.479,-4.4833,-4.4898,-4.4942,-4.4971,-4.5,-4.5054,-4.5122,-4.5087,-4.511,-4.5095,-4.5142,-4.5252,-4.5098,-4.5098,-4.5126,-4.5373,-4.5401,-4.5423,-4.5231,-4.5234,-4.5237,-4.5371,0,-4.4829,-4.4942,-4.4927,-4.5036,-4.5087,-4.5046,-4.5102,-4.5124,-4.5126,-4.5168,-4.5169,-4.5218,-4.5168,-4.5182,-4.5226,-4.5229,-4.5301,-4.5219,-4.5279,-4.5282,-4.5274,-4.5446,-4.5476,-4.5602,-4.5388,-4.5391,-4.5393,0,-4.5,-4.5036,-4.515,-4.5169,-4.519,-4.5241,-4.528,-4.5322,-4.5346,-4.5343,-4.537,-4.5346,-4.541,-4.5346,-4.5433,-4.5378,-4.5401,-4.5406,-4.541,-4.5415,-4.5344,-4.5455,-4.5641,-4.566,-4.542,-4.5418,-4.5416,0,-4.5122,-4.5199,-4.5277,-4.5293,-4.5318,-4.5354,-4.5366,-4.5386,-4.5414,-4.5448,-4.5465,-4.5505,-4.5528,-4.5559,-4.5546,-4.5501,-4.5636,-4.5571,-4.5635,-4.5635,-4.5665,-4.5663,-4.5858,-4.5681,-4.568,-4.568,-4.568,0,-4.5273,-4.5344,-4.5332,-4.538,-4.5458,-4.5439,-4.5517,-4.5523,-4.5542,-4.5589,-4.5556,-4.5601,-4.5582,-4.5625,-4.5615,-4.5689,-4.5699,-4.5698,-4.5695,-4.5701,-4.5701,-4.5716,-4.5707,-4.5685,-4.5684,-4.5683,-4.5682,0,-4.5423,-4.5417,-4.5499,-4.5516,-4.5521,-4.5578,-4.5591,-4.5636,-4.5634,-4.5695,-4.5708,-4.5705,-4.5755,-4.5745,-4.58,-4.5793,-4.5885,-4.5871,-4.5877,-4.5874,-4.5938,-4.5932,-4.6149,-4.6176,-4.5982,-4.5983,-4.5985,0,-4.5519,-4.5573,-4.5596,-4.5626,-4.564,-4.5689,-4.5717,-4.57,-4.573,-4.5761,-4.5802,-4.5848,-4.5885,-4.5966,-4.5968,-4.6009,-4.5995,-4.6069,-4.6001,-4.6006,-4.5996,-4.5993,-4.5998,-4.6082,-4.6084,-4.6086,-4.6087,0,-4.5692,-4.5686,-4.5728,-4.577,-4.5804,-4.5836,-4.5864,-4.589,-4.5875,-4.5911,-4.5961,-4.599,-4.6045,-4.6092,-4.613,-4.6141,-4.6112,-4.6109,-4.6125,-4.6133,-4.6134,-4.6134,-4.5913,-4.6104,-4.6102,-4.6101,-4.61,-4.6099,-4.5818,-4.5863,-4.5886,-4.5934,-4.5954,-4.598,-4.6023,-4.6027,-4.6069,-4.6114,-4.6101,-4.6158,-4.618,-4.6228,-4.6243,-4.6287,-4.626,-4.6284,-4.629,-4.6297,-4.6305,-4.6127,-4.6294,-4.6293,-4.6293,-4.6292,-4.6292,0,-4.5988,-4.6001,-4.6045,-4.6086,-4.6123,-4.6093,-4.6122,-4.6155,-4.6207,-4.6229,-4.6266,-4.6324,-4.6369,-4.6374,-4.6416,-4.645,-4.6438,-4.6462,-4.6459,-4.6462,-4.6327,-4.6308,-4.6471,-4.6471,-4.6471,-4.6471,-4.6471,-4.6471,-4.6081,-4.6157,-4.6154,-4.6239,-4.625,-4.6307,-4.6327,-4.6351,-4.6369,-4.6435,-4.6473,-4.6476,-4.6492,-4.6535,-4.6574,-4.6575,-4.6591,-4.6621,-4.6616,-4.649,-4.6472,-4.6455,-4.6437,-4.6625,-4.6625,-4.6748,-4.6749,-4.675]}]]